Regional Weather Roundup
Issued by NWS

Home | Current Version | Previous Version | Graphics & Text | Print | Product List | Glossary On
Versions: 1 2 3 4 5 6 7 8 9 10 11 12 13 14 15 16 17 18 19 20 21 22 23 24 25 26 27 28 29 30 31 32 33 34 35 36 37 38 39 40 41 42 43 44 45 46 47 48 49 50
000
ASUS43 KFSD 240710
RWRSD

WEATHER ROUNDUP FOR SOUTH DAKOTA
NATIONAL WEATHER SERVICE SIOUX FALLS SD
200 AM CDT MON APR 24 2017

NOTE: "FAIR" INDICATES FEW OR NO CLOUDS BELOW 12,000 FEET WITH NO
SIGNIFICANT WEATHER AND/OR OBSTRUCTIONS TO VISIBILITY.


SDZ001>005-009-010-012>017-240800-
NORTHWEST AND NORTH CENTRAL SOUTH DAKOTA

CITY           SKY/WX    TMP DP  RH WIND       PRES   REMARKS
BUFFALO          N/A     36  35  96 NE16      29.57F
FAITH            N/A     34  34 100 NE23      29.60F WCI  22
MOBRIDGE       CLOUDY    38  32  79 VRB6      29.64R
$$

SDZ012>016-024>037-041>051-057-063-072>074-240800-
SOUTHWEST AND SOUTH CENTRAL SOUTH DAKOTA

CITY           SKY/WX    TMP DP  RH WIND       PRES   REMARKS
RAPID CTY ARPT CLOUDY    42  39  89 N5        29.60R
PIERRE         CLOUDY    45  40  82 N6        29.56S
CUSTER         CLOUDY    47  37  68 SW5       29.64F
ELLSWORTH AFB  PTCLDY    42  42 100 SE3       29.60S
PHILIP         PTCLDY    41  37  86 N20G26    29.58F
PINE RIDGE     PTCLDY    60  41  49 W6        29.58S
SPEARFISH      CLOUDY    48  46  93 SE6       29.56F
WINNER         FAIR      60  32  34 S22G30    29.59F
$$

SDZ004>011-016>023-039-040-240800-
NORTHEAST SOUTH DAKOTA

CITY           SKY/WX    TMP DP  RH WIND       PRES   REMARKS
ABERDEEN       MOCLDY    44  38  79 N7        29.62F
WATERTOWN      CLOUDY    51  35  54 S13       29.68F
SISSETON         N/A     42  38  85 E8        29.70F
$$

SDZ017-020-022-023-036>040-048>070-240800-
SOUTHEAST SOUTH DAKOTA

CITY           SKY/WX    TMP DP  RH WIND       PRES   REMARKS
SIOUX FALLS    CLOUDY    56  34  43 S16G26    29.74F
HURON          CLOUDY    57  34  41 S14       29.63F
CHAMBERLAIN    CLOUDY    61  35  37 SE20G32   29.59F
MITCHELL       CLOUDY    56  35  45 S15       29.66F
YANKTON        CLOUDY    57  34  41 S12       29.73F
$$

ABBREVIATIONS USED IN REMARKS
   TC - TEMPERATURE IN CELSIUS
  WCI - WIND CHILL INDEX
   HX - HEAT INDEX
  VSB - VISIBILITY





USA.gov is the U.S. government's official web portal to all federal, state and local government web resources and services.